Regional Weather Roundup
Issued by NWS Lake Charles, LA

Home | Current Version | Previous Version | Text Only | Print | Product List | Glossary On
Versions: 1 2 3 4 5 6 7 8 9 10 11 12 13 14 15 16 17 18 19 20 21 22 23 24 25 26 27 28 29 30 31 32 33 34 35 36 37 38 39 40 41 42 43 44 45 46 47 48 49 50
000
ASUS44 KLCH 261510
RWRLCH
REGIONAL WEATHER ROUNDUP
NATIONAL WEATHER SERVICE LAKE CHARLES LA
1000 AM CDT WED JUL 26 2017

Note: "fair" indicates few or no clouds below 12,000 feet with no
significant weather and/or obstructions to visibility.


ACROSS SOUTHEAST TEXAS

CITY           SKY/WX    TMP DP  RH WIND       PRES   REMARKS
BEAUMONT       CLOUDY    85  79  82 SW6       30.12R
BEAUMONT CITY  FAIR      87  77  71 MISG      30.13S
ORANGE         CLOUDY    85  81  87 CALM      30.14S HX 102
JASPER         MOSUNNY   82  80  96 S7        30.15F
$$

ACROSS CENTRAL LOUISIANA

CITY           SKY/WX    TMP DP  RH WIND       PRES   REMARKS
LEESVILLE      MOSUNNY   84  78  82 S6        30.13S
FULLERTON      PTSUNNY   87  78  74 VRB3      30.11S HX 100
ALEXANDRIA INT SUNNY     85  78  80 SW3       30.12S
ESLER FIELD    SUNNY     86  77  74 SW5       30.13F
DERIDDER       PTSUNNY   84  82  93 S8        30.15S HX 101
OAKDALE        PTSUNNY   85  77  77 S3        30.14S
OPELOUSAS      PTSUNNY   84  78  80 CALM      30.14R
$$

ACROSS SOUTHWEST AND SOUTH CENTRAL LOUISIANA

CITY           SKY/WX    TMP DP  RH WIND       PRES   REMARKS
SULPHUR        PTSUNNY   89  78  70 S6        30.14R HX 102
LAKE CHARLES   MOSUNNY   87  78  74 VRB3      30.12S HX 100
CHENNAULT INT  MOSUNNY   86  79  79 CALM      30.13S
CAMERON PHI    SUNNY     86  79  79 S5        30.12S
DEQUINCY       FAIR      85  78  78 S7        30.13F
JENNINGS       FAIR      85  78  78 S3        30.13S
LAFAYETTE      SUNNY     87  78  74 CALM      30.13F HX 100
NEW IBERIA     CLOUDY    85  75  72 CALM      30.13F
ABBEVILLE      FAIR      84  81  89 CALM      30.13S
PATTERSON      MOSUNNY   86  77  74 N5        30.14F
SALT POINT       N/A     86  77  74 CALM      30.11S
$$

SELECTED SITES ACROSS THE REGION

CITY           SKY/WX    TMP DP  RH WIND       PRES   REMARKS
HOUSTON BUSH   CLOUDY    86  73  65 S7        30.12S
HOUSTON HOBBY  MOSUNNY   87  75  67 SW8       30.11S
GALVESTON      SUNNY     87  78  74 S10       30.13R HX 100
COLLEGE STAT   MOSUNNY   87  75  67 S13       30.12F
CONROE         SUNNY     87  72  60 S12       30.13S
HUNTSVILLE     SUNNY     87  71  58 SW8       30.13S
LUFKIN         MOSUNNY   84  77  79 SW9       30.13S
SHREVEPORT     MOSUNNY   84  78  82 S9        30.12S
MONROE         SUNNY     86  75  69 W8        30.13F
NATCHEZ MS     MOSUNNY   84  77  79 W3        30.16S
BATON ROUGE    MOSUNNY   85  78  80 NW3       30.14S
N.O. INTL ARPT MOSUNNY   86  77  74 NW8       30.13F
SLIDELL        CLOUDY    85  76  74 NW5       30.13S
$$

MARINE REPORTS

STATION/POSITION TIME  SKY/WX   TEMP    WIND        PRES    VSBY
                                AIR SEA DIR/SP/G
                 (UTC)          (F)     (DEG/KT/KT) (MB)    (MI)
BUOY 30 S HIGH I 1350            85 85  200/  8/ 10 1019.9
WVE H/P(F/S)=  3/ 6

SEA RIM ST PARK  1400            85     200/  5/  6 1020.4R
PORT ARTHUR      1448            86 86  210/  5/  8 1020.2R
SABINE PASS N    1448            87 87  170/  9/ 11 1021.4S
TEXAS POINT      NOT AVBL
CALCASIEU PASS   1448               85  190/  4/  5 1019.4R
LK CHARLES BEACH 1448            86 85              1020.5F
MARSH ISLAND     NOT AVBL
FRESH WATER LOCK 1448            85 85   CALM  /  2 1020.3R
AMERADA PASS     1448            84 86  330/  1/  3 1020.3R
$$



USA.gov is the U.S. government's official web portal to all federal, state and local government web resources and services.